Location: Diguira
(13.1838°N, 4.9109°W)
Time: 17:20:47
(UTC+00:00)

Ariane H10 - Pass Details

Date: 18 September 2020
Orbit: 153 x 5826 km, 7.0° (Epoch: 25 October)

Event Time Altitude Azimuth Distance (km) Brightness Sun altitude
Rises 19:35:58 0° 269° (W) 8,499 9.4 -19.7°
Reaches altitude 10° 19:44:12 10° 265° (W) 6,176 8.2 -21.7°
Maximum altitude 19:58:44 44° 199° (SSW) 1,760 4.3 -25.2°
Enters shadow 20:00:58 34° 157° (SSE) 1,658 3.9 -25.7°
